This is the latest recevied weather packets stored in our database for station/object SQ5LTL-2. If no packets are shown the sender has not sent any weather packets the latest 10 day(s).
| Time | Temp. | Humidity | Pressure | Rain* | Wind** | Luminosity | Snow |
|---|---|---|---|---|---|---|---|
| 1777443631 | 3.89° C | 62% | 1027.3 hPa | 0 mm | - | 260 W/m² | - |
| 1777443331 | 3.89° C | 64% | 1027.2 hPa | 0 mm | - | 247 W/m² | - |
| 1777443029 | 3.33° C | 65% | 1027.2 hPa | 0 mm | - | 236 W/m² | - |
| 1777442728 | 3.33° C | 65% | 1027.2 hPa | 0 mm | - | 224 W/m² | - |
| 1777442425 | 3.33° C | 66% | 1027.2 hPa | 0 mm | - | 212 W/m² | - |
| 1777442124 | 3.33° C | 66% | 1027.1 hPa | 0 mm | - | 201 W/m² | - |
| 1777441824 | 2.78° C | 67% | 1027.1 hPa | 0 mm | - | 189 W/m² | - |
| 1777441522 | 2.78° C | 67% | 1027.1 hPa | 0 mm | - | 178 W/m² | - |
| 1777441221 | 2.78° C | 67% | 1027 hPa | 0 mm | - | 165 W/m² | - |
| 1777440918 | 2.78° C | 67% | 1027.1 hPa | 0 mm | - | 155 W/m² | - |
| 1777440616 | 2.22° C | 68% | 1027 hPa | 0 mm | - | 146 W/m² | - |
| 1777440335 | 2.22° C | 68% | 1026.8 hPa | 0 mm | - | 137 W/m² | - |
| 1777440033 | 2.22° C | 68% | 1026.9 hPa | 0 mm | - | 129 W/m² | - |
| 1777439733 | 2.22° C | 68% | 1026.9 hPa | 0 mm | - | 120 W/m² | - |
| 1777439430 | 2.22° C | 67% | 1026.9 hPa | 0 mm | - | 112 W/m² | - |
| 1777439129 | 1.67° C | 68% | 1026.8 hPa | 0 mm | - | 103 W/m² | - |
| 1777438828 | 1.67° C | 68% | 1026.8 hPa | 0 mm | - | 91 W/m² | - |
| 1777438526 | 1.67° C | 69% | 1026.8 hPa | 0 mm | - | 80 W/m² | - |
| 1777438225 | 1.11° C | 69% | 1026.8 hPa | 0 mm | - | 70 W/m² | - |
| 1777437925 | 1.11° C | 70% | 1026.7 hPa | 0 mm | - | 60 W/m² | - |
| 1777437623 | 1.11° C | 70% | 1026.7 hPa | 0 mm | - | 57 W/m² | - |
| 1777437320 | 1.11° C | 71% | 1026.7 hPa | 0 mm | - | 74 W/m² | - |
| 1777437019 | 1.11° C | 71% | 1026.7 hPa | 0 mm | - | 69 W/m² | - |
| 1777436719 | 0.56° C | 72% | 1026.7 hPa | 0 mm | - | 62 W/m² | - |
| 1777436416 | 0.56° C | 72% | 1026.7 hPa | 0 mm | - | 56 W/m² | - |
* Rain latest hour (hover to see other rain measurements)
** Current wind speed in m/s (hover to see current wind gust speed)